Total_Precipitation_Accumulation
0.18 0.17 0.18 0.21 0.23 0.29 0.35 0.34 0.29 0.21 0.16 0.14 0.11 0.12 0.13 0.11 0.13 0.19 0.22 0.25 0.25 0.33 0.44 0.47 0.43 0.41 0.38 0.36 0.33 0.30 0.26 0.24 0.24 0.22 0.17 0.15 0.14 0.14 0.15 0.14 0.14 0.15 0.17
0.22 0.24 0.25 0.28 0.26 0.29 0.34 0.38 0.35 0.27 0.19 0.16 0.16 0.18 0.19 0.17 0.17 0.23 0.28 0.34 0.34 0.36 0.47 0.52 0.52 0.51 0.50 0.51 0.49 0.43 0.39 0.35 0.34 0.32 0.29 0.24 0.20 0.19 0.19 0.17 0.15 0.13 0.14
0.31 0.31 0.38 0.43 0.39 0.36 0.35 0.36 0.36 0.33 0.28 0.25 0.27 0.28 0.27 0.30 0.34 0.35 0.32 0.39 0.47 0.49 0.55 0.53 0.52 0.52 0.52 0.53 0.56 0.54 0.51 0.47 0.45 0.44 0.42 0.38 0.33 0.28 0.25 0.22 0.22 0.20 0.18
0.48 0.51 0.58 0.61 0.63 0.59 0.58 0.61 0.56 0.51 0.47 0.41 0.38 0.34 0.32 0.34 0.35 0.40 0.40 0.42 0.50 0.55 0.57 0.53 0.51 0.52 0.52 0.55 0.58 0.59 0.59 0.57 0.54 0.51 0.50 0.48 0.44 0.37 0.32 0.30 0.29 0.29 0.25
0.76 0.84 0.91 0.96 0.97 0.94 0.91 0.85 0.83 0.76 0.76 0.68 0.55 0.45 0.39 0.37 0.42 0.40 0.37 0.37 0.39 0.48 0.50 0.48 0.46 0.46 0.45 0.45 0.49 0.56 0.62 0.64 0.60 0.55 0.54 0.55 0.55 0.49 0.41 0.37 0.34 0.32 0.30
1.20 1.22 1.23 1.30 1.30 1.30 1.23 1.15 1.06 0.91 0.83 0.72 0.57 0.48 0.44 0.40 0.38 0.36 0.31 0.28 0.28 0.30 0.31 0.32 0.33 0.34 0.35 0.37 0.42 0.46 0.54 0.62 0.65 0.62 0.57 0.59 0.60 0.54 0.48 0.43 0.41 0.39 0.37
1.88 1.82 1.79 1.73 1.61 1.53 1.42 1.27 1.11 0.98 0.86 0.71 0.60 0.50 0.39 0.31 0.28 0.26 0.24 0.21 0.21 0.22 0.22 0.23 0.26 0.28 0.30 0.32 0.34 0.36 0.41 0.49 0.58 0.57 0.54 0.58 0.61 0.57 0.52 0.49 0.47 0.45 0.46
2.66 2.48 2.29 2.02 1.77 1.62 1.50 1.34 1.15 1.00 0.86 0.71 0.61 0.55 0.43 0.31 0.23 0.17 0.17 0.17 0.16 0.17 0.17 0.16 0.18 0.20 0.20 0.17 0.19 0.28 0.33 0.32 0.34 0.41 0.51 0.58 0.58 0.56 0.56 0.56 0.55 0.54 0.53
2.94 2.69 2.36 2.07 1.88 1.73 1.56 1.40 1.19 1.04 0.85 0.65 0.52 0.50 0.46 0.37 0.25 0.15 0.10 0.08 0.08 0.08 0.09 0.08 0.09 0.09 0.10 0.11 0.13 0.19 0.26 0.28 0.26 0.28 0.41 0.53 0.56 0.56 0.58 0.60 0.61 0.64 0.66
2.62 2.29 2.08 1.94 1.79 1.63 1.48 1.26 1.01 0.83 0.69 0.56 0.47 0.41 0.36 0.30 0.26 0.19 0.12 0.08 0.07 0.07 0.07 0.07 0.07 0.07 0.07 0.08 0.10 0.12 0.16 0.18 0.21 0.22 0.27 0.34 0.39 0.42 0.46 0.50 0.57 0.63 0.67
2.15 1.90 1.72 1.63 1.54 1.34 1.11 0.86 0.66 0.55 0.46 0.39 0.32 0.28 0.26 0.22 0.19 0.20 0.17 0.11 0.08 0.07 0.06 0.06 0.07 0.07 0.08 0.08 0.09 0.11 0.15 0.16 0.19 0.21 0.23 0.26 0.30 0.35 0.39 0.45 0.53 0.63 0.70
1.72 1.48 1.22 1.04 0.89 0.73 0.55 0.43 0.36 0.32 0.29 0.25 0.20 0.18 0.17 0.17 0.16 0.16 0.16 0.11 0.08 0.06 0.06 0.05 0.05 0.05 0.05 0.05 0.07 0.11 0.14 0.17 0.18 0.19 0.18 0.17 0.19 0.21 0.27 0.35 0.45 0.54 0.65
1.16 0.95 0.75 0.61 0.48 0.38 0.32 0.28 0.24 0.21 0.17 0.15 0.14 0.13 0.11 0.10 0.10 0.11 0.13 0.11 0.09 0.05 0.03 0.03 0.02 0.02 0.02 0.03 0.06 0.11 0.17 0.15 0.15 0.14 0.13 0.12 0.11 0.11 0.13 0.17 0.25 0.35 0.47
0.64 0.52 0.42 0.34 0.27 0.22 0.17 0.13 0.11 0.09 0.09 0.09 0.08 0.09 0.09 0.08 0.09 0.11 0.14 0.17 0.16 0.10 0.05 0.03 0.02 0.02 0.02 0.06 0.13 0.17 0.22 0.14 0.11 0.09 0.08 0.06 0.06 0.06 0.08 0.09 0.12 0.16 0.23
0.34 0.27 0.21 0.17 0.12 0.10 0.09 0.08 0.07 0.07 0.08 0.09 0.09 0.09 0.09 0.09 0.10 0.11 0.12 0.16 0.21 0.20 0.12 0.05 0.04 0.04 0.07 0.15 0.26 0.29 0.29 0.21 0.14 0.10 0.07 0.06 0.05 0.06 0.06 0.07 0.08 0.10 0.12
0.17 0.14 0.12 0.10 0.09 0.08 0.07 0.07 0.08 0.08 0.09 0.09 0.10 0.11 0.10 0.10 0.10 0.10 0.10 0.13 0.19 0.27 0.23 0.09 0.04 0.05 0.10 0.16 0.30 0.34 0.37 0.33 0.24 0.16 0.11 0.08 0.07 0.07 0.08 0.10 0.11 0.12 0.15
0.11 0.10 0.09 0.09 0.09 0.09 0.08 0.09 0.10 0.10 0.09 0.09 0.08 0.09 0.09 0.09 0.10 0.10 0.10 0.12 0.14 0.21 0.25 0.13 0.06 0.07 0.14 0.22 0.29 0.32 0.32 0.31 0.27 0.25 0.18 0.15 0.13 0.11 0.11 0.12 0.14 0.17 0.21
0.09 0.09 0.09 0.09 0.08 0.07 0.08 0.09 0.09 0.09 0.09 0.09 0.08 0.08 0.08 0.08 0.09 0.09 0.10 0.11 0.14 0.20 0.29 0.24 0.13 0.09 0.12 0.19 0.26 0.28 0.24 0.23 0.26 0.28 0.22 0.16 0.13 0.13 0.18 0.15 0.13 0.16 0.22
0.09 0.09 0.08 0.07 0.07 0.07 0.08 0.08 0.07 0.06 0.06 0.07 0.07 0.08 0.09 0.10 0.09 0.11 0.14 0.15 0.18 0.22 0.30 0.33 0.21 0.16 0.17 0.24 0.35 0.35 0.30 0.38 0.31 0.26 0.22 0.17 0.16 0.17 0.40 0.46 0.22 0.18 0.21
0.10 0.09 0.08 0.07 0.07 0.07 0.06 0.04 0.04 0.04 0.04 0.05 0.06 0.09 0.10 0.11 0.13 0.18 0.19 0.22 0.27 0.31 0.32 0.35 0.28 0.21 0.23 0.29 0.41 0.48 0.44 0.42 0.38 0.24 0.27 0.24 0.22 0.28 0.65 1.20 0.67 0.35 0.29
0.10 0.09 0.08 0.07 0.06 0.04 0.02 0.01 0.01 0.01 0.03 0.04 0.06 0.09 0.11 0.11 0.16 0.19 0.19 0.24 0.32 0.38 0.40 0.42 0.36 0.30 0.28 0.37 0.47 0.51 0.48 0.45 0.38 0.32 0.38 0.33 0.49 0.82 1.34 1.99 1.53 0.88 0.63
0.11 0.08 0.05 0.04 0.03 0.02 0.01 0.01 0.01 0.01 0.02 0.05 0.09 0.10 0.08 0.07 0.08 0.09 0.14 0.21 0.30 0.39 0.46 0.51 0.48 0.44 0.37 0.44 0.55 0.58 0.59 0.57 0.45 0.32 0.37 0.38 0.68 1.41 2.11 2.52 2.10 1.31 0.98
0.08 0.07 0.05 0.04 0.05 0.03 0.00 0.00 0.00 0.01 0.04 0.09 0.12 0.12 0.09 0.08 0.12 0.17 0.17 0.17 0.25 0.33 0.46 0.59 0.61 0.52 0.49 0.54 0.67 0.72 0.66 0.65 0.60 0.43 0.46 0.47 0.81 1.66 2.04 2.29 2.11 1.44 1.14
0.07 0.06 0.05 0.05 0.07 0.04 0.00 0.00 0.00 0.01 0.06 0.09 0.10 0.12 0.15 0.18 0.16 0.13 0.14 0.22 0.32 0.42 0.48 0.54 0.61 0.55 0.53 0.55 0.63 0.67 0.64 0.62 0.51 0.45 0.53 0.62 0.90 1.53 1.68 1.83 1.93 1.50 1.22
0.06 0.05 0.04 0.05 0.08 0.07 0.01 0.00 0.00 0.02 0.05 0.07 0.09 0.11 0.12 0.17 0.13 0.12 0.19 0.31 0.39 0.52 0.60 0.73 0.73 0.67 0.66 0.65 0.56 0.53 0.63 0.71 0.62 0.44 0.48 0.62 0.85 1.20 1.33 1.47 1.54 1.45 1.33
0.06 0.05 0.05 0.06 0.08 0.09 0.02 0.00 0.01 0.03 0.05 0.06 0.10 0.14 0.13 0.11 0.11 0.15 0.22 0.38 0.54 0.62 0.79 0.99 0.94 0.87 0.82 0.78 0.66 0.59 0.71 0.83 0.78 0.59 0.49 0.57 0.73 0.92 1.14 1.24 1.20 1.18 1.27